TimeCST,TemperatureF,Dew PointF,Humidity,Sea Level PressureIn,VisibilityMPH,Wind Direction,Wind SpeedMPH,Gust SpeedMPH,PrecipitationIn,Events,Conditions,WindDirDegrees,DateUTC
12:56 AM,32.0,28.0,85,30.39,10.0,ENE,3.5,-,N/A,,Clear,70,2013-11-30 06:56:00
1:56 AM,30.0,27.0,88,30.39,10.0,North,4.6,-,N/A,,Clear,360,2013-11-30 07:56:00
2:56 AM,30.0,27.0,88,30.38,10.0,North,3.5,-,N/A,,Clear,350,2013-11-30 08:56:00
3:56 AM,30.9,28.0,89,30.38,10.0,North,3.5,-,N/A,,Clear,360,2013-11-30 09:56:00
4:56 AM,33.1,28.9,85,30.38,10.0,North,3.5,-,N/A,,Clear,360,2013-11-30 10:56:00
5:56 AM,30.0,27.0,88,30.40,10.0,North,3.5,-,N/A,,Clear,10,2013-11-30 11:56:00
6:56 AM,36.0,28.9,76,30.40,10.0,NNE,5.8,-,N/A,,Clear,30,2013-11-30 12:56:00
7:56 AM,45.0,32.0,60,30.42,10.0,NNE,4.6,-,N/A,,Clear,20,2013-11-30 13:56:00
8:56 AM,48.9,33.1,54,30.43,10.0,ENE,5.8,-,N/A,,Clear,70,2013-11-30 14:56:00
9:56 AM,55.9,35.1,45,30.43,10.0,NNE,5.8,-,N/A,,Clear,30,2013-11-30 15:56:00
10:56 AM,62.1,35.1,37,30.40,10.0,Variable,3.5,-,N/A,,Clear,0,2013-11-30 16:56:00
11:56 AM,-9999,-9999,N/A,30.39,-9999.0,North,-9999.0,-,N/A,,Unknown,0,2013-11-30 17:56:00
12:56 PM,-9999,-9999,N/A,30.36,-9999.0,North,-9999.0,-,N/A,,Unknown,0,2013-11-30 18:56:00
1:56 PM,-9999,-9999,N/A,30.33,-9999.0,North,-9999.0,-,N/A,,Unknown,0,2013-11-30 19:56:00
2:56 PM,-9999,-9999,N/A,30.31,-9999.0,North,-9999.0,-,N/A,,Unknown,0,2013-11-30 20:56:00
3:56 PM,-9999,-9999,N/A,30.30,-9999.0,North,-9999.0,-,N/A,,Unknown,0,2013-11-30 21:56:00
4:56 PM,-9999,-9999,N/A,30.29,-9999.0,North,-9999.0,-,N/A,,Unknown,0,2013-11-30 22:56:00
5:56 PM,-9999,-9999,N/A,30.29,-9999.0,North,-9999.0,-,N/A,,Unknown,0,2013-11-30 23:56:00
6:56 PM,-9999,-9999,N/A,30.30,-9999.0,North,-9999.0,-,N/A,,Unknown,0,2013-12-01 00:56:00
7:56 PM,-9999,-9999,N/A,30.29,-9999.0,North,-9999.0,-,N/A,,Unknown,0,2013-12-01 01:56:00
8:56 PM,-9999,-9999,N/A,30.29,-9999.0,North,-9999.0,-,N/A,,Unknown,0,2013-12-01 02:56:00
9:56 PM,-9999,-9999,N/A,30.29,-9999.0,North,-9999.0,-,N/A,,Unknown,0,2013-12-01 03:56:00
10:56 PM,-9999,-9999,N/A,30.29,-9999.0,North,-9999.0,-,N/A,,Unknown,0,2013-12-01 04:56:00
11:56 PM,-9999,-9999,N/A,30.28,-9999.0,North,-9999.0,-,N/A,,Unknown,0,2013-12-01 05:56:00